Simultaneous Nadir Overpasses (SNOs) Predictions

Prediction of SNOs between TERRA and METOP-C Satellite Orbit:

Table of predicted SNOs for the next 14.0 days since TLE Epoch: 6/3/2023
Index Date (TERRA) Time (TERRA) Lat,Lon (TERRA) SZA (TERRA ) Date (METOP-C) Time (METOP-C) Lat,Lon (METOP-C) SZA (METOP-C ) Distance(km) Time Diff (sec)
1 06/03/2023 13:19:39 80.80, 12.48 60.01 06/03/2023 13:19:34 80.80, 12.32 59.99 2.89 5
2 06/03/2023 14:08:59 -80.87,-179.07 119.87 06/03/2023 14:10:11 -80.87,-179.03 119.83 0.86 72
3 06/06/2023 04:41:09 -80.80, -37.90 120.30 06/06/2023 04:40:29 -80.81, -37.74 120.30 2.92 40
4 06/06/2023 05:30:29 80.86, 130.41 59.81 06/06/2023 05:31:07 80.86, 130.49 59.83 1.35 38
5 06/08/2023 20:02:40 80.74, -88.97 59.33 06/08/2023 20:01:27 80.74, -89.05 59.29 1.51 73
6 06/08/2023 20:52:00 -80.82, 79.57 120.54 06/08/2023 20:52:04 -80.83, 79.73 120.51 2.98 4
7 06/11/2023 12:13:28 80.80, 28.95 59.21 06/11/2023 12:12:59 80.80, 28.98 59.20 0.63 29
8 06/11/2023 13:02:49 -80.85,-162.79 120.70 06/11/2023 13:03:38 -80.85,-162.86 120.69 1.35 49
9 06/14/2023 03:34:58 -80.77, -21.78 121.02 06/14/2023 03:33:56 -80.77, -21.74 121.04 0.76 62
10 06/14/2023 04:24:18 80.81, 146.36 59.06 06/14/2023 04:24:34 80.81, 146.26 59.05 1.84 16
11 06/16/2023 19:45:47 -80.80, 95.85 121.09 06/16/2023 19:45:30 -80.80, 95.90 121.09 0.91 17



Historial Predications of SNOs between TERRA and METOP-C
